Weather History for San Angelo, TX

Change the Weather History Date:

Friday, March 28, 2014

  Actual Average Record
Temperature  
Mean Temperature 71 °F 61 °F  
Max Temperature 87 °F 75 °F 94 °F (1967)
Min Temperature 54 °F 47 °F 24 °F (1955)
Degree Days  
Heating Degree Days 0 6  
Month to date heating degree days 277 242  
Since 1 July heating degree days 2397 2203  
Cooling Degree Days 6 2  
Month to date cooling degree days 43 30  
Year to date cooling degree days 46 35  
Growing Degree Days 20 (Base 50)    
Moisture  
Dew Point 32 °F    
Average Humidity 44    
Maximum Humidity 77    
Minimum Humidity 10    
Precipitation  
Precipitation 0.00 in 0.04 in 0.61 in (1989)
Month to date precipitation 0.05 1.36  
Year to date precipitation 0.11 3.64  
Snow  
Snow 0.00 in 0.00 in 0.00 in (2002)
Month to date snowfall T 0.1  
Since 1 July snowfall 1.6 2.2  
Snow Depth 0.00 in    
Sea Level Pressure  
Sea Level Pressure 29.82 in    
Wind  
Wind Speed 12 mph (WNW)    
Max Wind Speed 29 mph    
Max Gust Speed 34 mph    
Visibility 10 miles    
Events      
T = Trace of Precipitation, MM = Missing Value Source: NWS Daily Summary

Daily Weather History Graph

Daily Weather History Graph

Search for Another Location

Airport:

Trip Planner

Search our weather history database for the weather conditions in past years. The results will help you decide how hot, cold, wet, or windy it might be!

Date:

Astronomy

Mar. 28, 2014 Rise Set
Actual Time 7:35 AM CDT 7:58 PM CDT
Civil Twilight 7:11 AM CDT 8:23 PM CDT
Nautical Twilight 6:42 AM CDT 8:51 PM CDT
Astronomical Twilight 6:14 AM CDT 9:20 PM CDT
Moon 5:59 AM CDT (3/28) 6:03 PM CDT (3/28)
Length of Visible Light 13h 11m
Length of Day
12h 23m
Waning Crescent, 6% of the Moon is Illuminated
Mar 28
Waning Crescent
Mar 30
New
Apr 7
First Quarter
Apr 15
Full
Apr 22
Last Quarter

Hourly Weather History & Observations

Time (CDT) Temp. Dew Point Humidity Pressure Visibility Wind Dir Wind Speed Gust Speed Precip Events Conditions
12:51 AM 61.0 °F 28.0 °F 29% 29.74 in 10.0 mi Variable 3.5 mph - N/A   Clear
1:51 AM 59.0 °F 28.9 °F 32% 29.73 in 10.0 mi Calm Calm - N/A   Clear
2:51 AM 57.0 °F 30.9 °F 37% 29.73 in 10.0 mi WSW 3.5 mph - N/A   Clear
3:51 AM 57.0 °F 28.0 °F 33% 29.72 in 10.0 mi WSW 4.6 mph - N/A   Partly Cloudy
4:51 AM 60.1 °F 39.0 °F 46% 29.72 in 10.0 mi WSW 9.2 mph - N/A   Clear
5:51 AM 57.0 °F 39.9 °F 53% 29.73 in 10.0 mi SSW 4.6 mph - N/A   Clear
6:51 AM 54.0 °F 42.1 °F 64% 29.74 in 10.0 mi SSW 6.9 mph - N/A   Partly Cloudy
7:51 AM 55.9 °F 48.0 °F 75% 29.76 in 10.0 mi SW 6.9 mph - N/A   Partly Cloudy
8:51 AM 60.1 °F 46.0 °F 60% 29.81 in 10.0 mi West 5.8 mph - N/A   Scattered Clouds
9:51 AM 68.0 °F 53.1 °F 59% 29.81 in 10.0 mi SW 9.2 mph - N/A   Clear
10:51 AM 75.9 °F 37.9 °F 25% 29.83 in 10.0 mi WNW 10.4 mph 21.9 mph N/A   Clear
11:51 AM 82.0 °F 26.1 °F 13% 29.82 in 10.0 mi NW 20.7 mph 28.8 mph N/A   Clear
12:51 PM 84.0 °F 25.0 °F 12% 29.83 in 10.0 mi WNW 19.6 mph 28.8 mph N/A   Clear
1:51 PM 84.0 °F 24.1 °F 11% 29.82 in 10.0 mi WNW 18.4 mph 29.9 mph N/A   Clear
2:51 PM 84.0 °F 23.0 °F 11% 29.81 in 10.0 mi West 15.0 mph 28.8 mph N/A   Clear
3:51 PM 87.1 °F 25.0 °F 10% 29.80 in 10.0 mi WNW 24.2 mph 28.8 mph N/A   Clear
4:51 PM 84.9 °F 25.0 °F 11% 29.79 in 10.0 mi WNW 21.9 mph 29.9 mph N/A   Clear
5:51 PM 84.9 °F 24.1 °F 11% 29.81 in 10.0 mi WNW 19.6 mph 27.6 mph N/A   Clear
6:51 PM 82.0 °F 23.0 °F 11% 29.83 in 10.0 mi WNW 16.1 mph - N/A   Clear
7:51 PM 78.1 °F 21.9 °F 12% 29.87 in 10.0 mi NW 11.5 mph - N/A   Clear
8:51 PM 73.9 °F 21.9 °F 14% 29.90 in 10.0 mi NW 10.4 mph - N/A   Clear
9:37 PM 68.0 °F 37.9 °F 33% 30.00 in 10.0 mi NNE 21.9 mph 31.1 mph N/A   Clear
9:51 PM 66.9 °F 39.0 °F 36% 29.96 in 10.0 mi NE 18.4 mph - N/A   Clear
10:51 PM 63.0 °F 39.0 °F 41% 30.02 in 10.0 mi NE 12.7 mph - N/A   Clear
11:51 PM 60.1 °F 39.0 °F 46% 30.06 in 10.0 mi NE 10.4 mph - N/A   Clear